Time,TemperatureF,DewpointF,PressureIn,WindDirection,WindDirectionDegrees,WindSpeedMPH,WindSpeedGustMPH,Humidity,HourlyPrecipIn,Conditions,Clouds,dailyrainin,SoftwareType,DateUTC
2013-10-17 00:02:00,65.0,-99.9,30.06,WNW,293,2.0,3.0,-999,-99.99,,,-99.99,,2013-10-17 07:02:00,
2013-10-17 01:42:00,62.0,-99.9,30.06,NNE,12,5.0,6.0,-999,-99.99,,,-99.99,,2013-10-17 08:42:00,
2013-10-17 01:52:00,62.0,-99.9,30.06,NNE,12,5.0,6.0,-999,-99.99,,,-99.99,,2013-10-17 08:52:00,
2013-10-17 02:02:00,62.0,-99.9,30.06,NNE,12,5.0,6.0,-999,-99.99,,,-99.99,,2013-10-17 09:02:00,
2013-10-17 02:43:00,62.0,-99.9,30.06,NNW,346,6.0,8.0,-999,-99.99,,,-99.99,,2013-10-17 09:43:00,
2013-10-17 02:53:00,62.0,-99.9,30.06,NNW,346,6.0,8.0,-999,-99.99,,,-99.99,,2013-10-17 09:53:00,
2013-10-17 03:03:00,62.0,-99.9,30.06,NNW,346,6.0,8.0,-999,-99.99,,,-99.99,,2013-10-17 10:03:00,
2013-10-17 03:42:00,60.0,-99.9,30.06,North,351,10.0,11.0,-999,-99.99,,,-99.99,,2013-10-17 10:42:00,
2013-10-17 03:53:00,60.0,-99.9,30.06,North,351,10.0,11.0,-999,-99.99,,,-99.99,,2013-10-17 10:53:00,
2013-10-17 04:22:00,58.0,-99.9,30.05,NNE,25,6.0,7.0,-999,-99.99,,,-99.99,,2013-10-17 11:22:00,
2013-10-17 04:33:00,58.0,-99.9,30.05,NNE,25,6.0,7.0,-999,-99.99,,,-99.99,,2013-10-17 11:33:00,
2013-10-17 04:52:00,57.0,-99.9,30.05,NNE,19,6.0,8.0,-999,-99.99,,,-99.99,,2013-10-17 11:52:00,
2013-10-17 05:52:00,57.0,-99.9,30.06,NNE,20,6.0,9.0,-999,-99.99,,,-99.99,,2013-10-17 12:52:00,
2013-10-17 06:22:00,58.0,-99.9,30.06,North,4,8.0,11.0,-999,-99.99,,,-99.99,,2013-10-17 13:22:00,
2013-10-17 07:22:00,57.0,-99.9,30.06,North,358,9.0,10.0,-999,-99.99,,,-99.99,,2013-10-17 14:22:00,
2013-10-17 07:52:00,57.0,-99.9,30.06,North,357,8.0,10.0,-999,-99.99,,,-99.99,,2013-10-17 14:52:00,
2013-10-17 08:54:00,58.0,-99.9,30.08,North,359,8.0,10.0,-999,-99.99,,,-99.99,,2013-10-17 15:54:00,
2013-10-17 10:22:00,63.0,-99.9,30.09,North,9,4.0,7.0,-999,-99.99,,,-99.99,,2013-10-17 17:22:00,
2013-10-17 15:24:00,69.0,-99.9,30.00,SW,226,8.0,10.0,-999,-99.99,,,-99.99,,2013-10-17 22:24:00,
2013-10-17 15:43:00,70.0,-99.9,30.00,SW,223,10.0,13.0,-999,-99.99,,,-99.99,,2013-10-17 22:43:00,
2013-10-17 20:54:00,60.0,-99.9,29.99,SW,220,7.0,10.0,-999,-99.99,,,-99.99,,2013-10-18 03:54:00,
2013-10-17 21:24:00,60.0,-99.9,29.99,SW,220,7.0,10.0,-999,-99.99,,,-99.99,,2013-10-18 04:24:00,
2013-10-17 21:34:00,60.0,-99.9,29.99,SW,220,7.0,10.0,-999,-99.99,,,-99.99,,2013-10-18 04:34:00,
2013-10-17 21:44:00,60.0,-99.9,29.99,SW,220,7.0,10.0,-999,-99.99,,,-99.99,,2013-10-18 04:44:00,
2013-10-17 23:22:00,57.0,-99.9,30.00,SW,214,9.0,14.0,-999,-99.99,,,-99.99,,2013-10-18 06:22:00,